SR8WXD Weather Reports


time (UTC)temp
F
wind
direction
speed
knots
gust
knots
rain 1hr
in
rain 24hr
in
rain mn
in
humidity
%
barometer
mb
20260905234917 55 235 7.8 12.2 0.00 0.00 0.00 100
20260905234716 55 229 7.0 12.2 0.00 0.00 0.00 100
20260905234616 55 233 7.0 10.4 0.00 0.00 0.00 100
20260905234515 55 233 7.8 10.4 0.00 0.00 0.00 100
20260905234314 56 232 7.8 13.9 0.00 0.00 0.00 100
20260905234113 56 232 7.8 13.9 0.00 0.00 0.00 100
20260905233912 56 230 7.8 13.9 0.00 0.00 0.00 100
20260905233711 56 234 9.6 15.6 0.00 0.00 0.00 100
20260905233611 56 239 9.6 15.6 0.00 0.00 0.00 100
20260905233510 56 240 10.4 15.6 0.00 0.00 0.00 100
20260905233307 56 233 10.4 15.6 0.00 0.00 0.00 100
20260905233106 56 238 10.4 17.4 0.00 0.00 0.00 100
20260905232904 56 243 8.7 13.0 0.00 0.00 0.00 100
20260905232703 56 247 10.4 14.8 0.00 0.00 0.00 100
20260905232602 56 243 9.6 14.8 0.00 0.00 0.00 100
20260905232500 56 236 8.7 14.8 0.00 0.00 0.00 100
20260905232258 56 230 9.6 14.8 0.00 0.00 0.00 100
20260905232057 56 234 9.6 12.2 0.00 0.00 0.00 100
20260905231856 56 237 11.3 16.5 0.00 0.00 0.00 100
20260905231655 56 233 9.6 16.5 0.00 0.00 0.00 100
20260905231554 56 236 9.6 15.6 0.00 0.00 0.00 100
20260905231453 56 240 10.4 15.6 0.00 0.00 0.00 100
20260905231251 56 251 10.4 14.8 0.00 0.00 0.00 100
20260905231048 57 247 13.0 20.0 0.00 0.00 0.00 100
20260905230846 57 248 14.8 26.1 0.00 0.00 0.00 100
20260905230655 57 254 15.6 26.1 0.00 0.00 0.00 100
20260905230542 57 253 14.8 20.9 0.00 0.00 0.00 100
20260905230450 57 252 13.9 20.0 0.00 0.00 0.00 100
20260905230245 57 254 14.8 29.5 0.00 0.00 0.00 100
20260905230031 57 251 15.6 20.9 0.00 0.00 0.00 100
20260905225826 57 245 14.8 21.7 0.00 0.00 0.00 100
20260905225622 57 242 15.6 21.7 0.00 0.00 0.00 100
20260905225522 58 242 15.6 21.7 0.00 0.00 0.00 100
20260905225420 58 242 14.8 21.7 0.00 0.00 0.00 100
20260905225217 58 245 13.0 21.7 0.00 0.00 0.00 100
20260905225013 58 244 12.2 19.1 0.00 0.00 0.00 100
20260905224810 58 241 11.3 18.2 0.00 0.00 0.00 100
20260905224607 59 256 14.8 19.1 0.00 0.00 0.00 100
20260905224505 59 246 13.9 19.1 0.00 0.00 0.00 100
20260905224404 59 236 13.0 19.1 0.00 0.00 0.00 100
20260905224200 59 244 12.2 22.6 0.00 0.00 0.00 100
20260905223954 59 239 13.0 22.6 0.00 0.00 0.00 100
20260905223751 59 223 12.2 17.4 0.00 0.00 0.00 100
20260905223548 59 219 11.3 14.8 0.00 0.00 0.00 100
20260905223446 59 221 11.3 14.8 0.00 0.00 0.00 100
20260905223343 59 226 10.4 12.2 0.00 0.00 0.00 100
20260905223140 59 226 8.7 11.3 0.00 0.00 0.00 100
20260905222937 59 218 8.7 13.0 0.00 0.00 0.00 100
20260905222734 59 220 9.6 13.0 0.00 0.00 0.00 100
20260905222531 59 221 9.6 13.0 0.00 0.00 0.00 100
20260905222430 59 221 9.6 15.6 0.00 0.00 0.00 100
20260905222330 59 221 9.6 15.6 0.00 0.00 0.00 100
20260905222126 59 225 10.4 16.5 0.00 0.00 0.00 100
20260905221923 59 225 8.7 16.5 0.00 0.00 0.00 100
20260905221711 59 230 8.7 13.9 0.00 0.00 0.00 100
20260905221508 59 224 9.6 15.6 0.00 0.00 0.00 100
20260905221405 59 222 10.4 15.6 0.00 0.00 0.00 100
20260905221305 59 218 9.6 14.8 0.00 0.00 0.00 100
20260905221103 59 225 11.3 13.9 0.00 0.00 0.00 100
20260905220858 59 228 10.4 13.0 0.00 0.00 0.00 100
20260905220658 58 222 9.6 17.4 0.00 0.00 0.00 100
20260905220455 58 233 8.7 12.2 0.00 0.00 0.00 100
20260905220352 59 230 8.7 13.0 0.00 0.00 0.00 100
20260905220253 59 234 9.6 13.0 0.00 0.00 0.00 100
20260905220051 59 227 9.6 13.0 0.00 0.00 0.00 100
20260905215844 59 223 9.6 13.0 0.00 0.00 0.00 100
20260905215642 59 222 10.4 15.6 0.00 0.00 0.00 100
20260905215439 59 221 9.6 17.4 0.00 0.00 0.00 100
20260905215336 59 226 8.7 17.4 0.00 0.00 0.00 100
20260905215238 59 226 7.8 10.4 0.00 0.00 0.00 100
20260905215036 59 221 8.7 16.5 0.00 0.00 0.00 100
20260905214831 59 218 11.3 19.1 0.00 0.00 0.00 100
20260905214632 59 226 11.3 19.1 0.00 0.00 0.00 100
20260905214429 59 225 11.3 16.5 0.00 0.00 0.00 100
20260905214324 59 218 10.4 16.5 0.00 0.00 0.00 100
20260905214225 59 222 9.6 16.5 0.00 0.00 0.00 100
20260905214024 59 221 8.7 12.2 0.00 0.00 0.00 100
20260905213818 59 225 9.6 13.9 0.00 0.00 0.00 100
20260905213619 59 222 10.4 13.9 0.00 0.00 0.00 100
20260905213416 59 226 11.3 16.5 0.00 0.00 0.00 100
20260905213310 59 227 11.3 16.5 0.00 0.00 0.00 100
20260905213210 59 222 10.4 16.5 0.00 0.00 0.00 100
20260905212801 59 221 10.4 14.8 0.00 0.00 0.00 100
20260905212603 59 218 11.3 15.6 0.00 0.00 0.00 100
20260905212400 59 226 9.6 13.9 0.00 0.00 0.00 100
20260905212255 59 243 9.6 13.9 0.00 0.00 0.00 100
20260905212158 59 249 10.4 16.5 0.00 0.00 0.00 100
20260905211954 59 229 11.3 16.5 0.00 0.00 0.00 100
20260905211746 59 217 10.4 13.9 0.00 0.00 0.00 100
20260905211547 59 221 12.2 24.3 0.00 0.00 0.00 100
20260905211345 59 218 11.3 24.3 0.00 0.00 0.00 100
20260905211239 59 221 9.6 14.8 0.00 0.00 0.00 100
20260905211143 59 221 10.4 15.6 0.00 0.00 0.00 100
20260905210940 59 224 12.2 15.6 0.00 0.00 0.00 100
20260905210733 59 228 9.6 14.8 0.00 0.00 0.00 100
20260905210534 59 232 10.4 14.8 0.00 0.00 0.00 100
20260905210331 59 223 9.6 13.9 0.00 0.00 0.00 100
20260905210225 59 227 8.7 13.9 0.00 0.00 0.00 100
20260905210129 59 223 8.7 12.2 0.00 0.00 0.00 100
20260905205926 59 215 8.7 13.0 0.00 0.00 0.00 100
20260905205719 59 215 9.6 13.9 0.00 0.00 0.00 100
20260905205522 59 225 8.7 14.8 0.00 0.00 0.00 100
20260905205318 59 226 8.7 12.2 0.00 0.00 0.00 100
20260905205211 59 215 8.7 12.2 0.00 0.00 0.00 100
20260905205115 59 215 7.8 12.2 0.00 0.00 0.00 100
20260905204913 59 217 7.8 10.4 0.00 0.00 0.00 100
20260905204705 59 218 8.7 11.3 0.00 0.00 0.00 100
20260905204508 59 220 9.6 13.9 0.00 0.00 0.00 100
20260905204306 59 220 9.6 13.0 0.00 0.00 0.00 100
20260905204159 59 217 9.6 11.3 0.00 0.00 0.00 100
20260905204103 59 217 8.7 11.3 0.00 0.00 0.00 100
20260905203900 59 218 8.7 12.2 0.00 0.00 0.00 100
20260905203653 59 224 8.7 12.2 0.00 0.00 0.00 100
20260905203456 59 227 8.7 12.2 0.00 0.00 0.00 100
20260905203252 59 227 8.7 11.3 0.00 0.00 0.00 100
20260905203145 59 221 8.7 11.3 0.00 0.00 0.00 100
20260905203050 59 233 8.7 11.3 0.00 0.00 0.00 100
20260905202847 59 233 8.7 11.3 0.00 0.00 0.00 100
20260905202638 59 225 8.7 11.3 0.00 0.00 0.00 100
20260905202341 59 219 9.6 12.2 0.00 0.00 0.00 100
20260905202133 59 216 8.7 11.3 0.00 0.00 0.00 100
20260905201936 59 216 8.7 13.0 0.00 0.00 0.00 100
20260905201732 59 219 9.6 13.9 0.00 0.00 0.00 100
20260905201626 59 219 10.4 13.9 0.00 0.00 0.00 100
20260905201530 59 227 9.6 13.9 0.00 0.00 0.00 100
20260905201328 59 228 8.7 11.3 0.00 0.00 0.00 100
20260905201119 59 219 10.4 13.9 0.00 0.00 0.00 100
20260905200923 59 218 9.6 14.8 0.00 0.00 0.00 100
20260905200720 59 225 10.4 13.0 0.00 0.00 0.00 100
20260905200614 59 230 10.4 13.9 0.00 0.00 0.00 100
20260905200519 58 230 10.4 15.6 0.00 0.00 0.00 100
20260905200316 58 232 10.4 15.6 0.00 0.00 0.00 100
20260905200109 58 227 8.7 13.0 0.00 0.00 0.00 100
20260905195909 58 218 9.6 15.6 0.00 0.00 0.00 100
20260905195704 58 228 9.6 14.8 0.00 0.00 0.00 100
20260905195603 58 229 9.6 14.8 0.00 0.00 0.00 100
20260905195511 58 234 9.6 14.8 0.00 0.00 0.00 100
20260905195256 58 234 9.6 13.9 0.00 0.00 0.00 100
20260905195053 58 227 8.7 13.0 0.00 0.00 0.00 100
20260905194851 58 218 9.6 12.2 0.00 0.00 0.00 100
20260905194649 57 217 8.7 12.2 0.00 0.00 0.00 100
20260905194547 57 220 8.7 12.2 0.00 0.00 0.00 100
20260905194446 57 219 8.7 12.2 0.00 0.00 0.00 100
20260905194040 57 224 8.7 10.4 0.00 0.00 0.00 100
20260905193828 57 217 8.7 11.3 0.00 0.00 0.00 100
20260905193625 57 218 9.6 12.2 0.00 0.00 0.00 100
20260905193523 57 217 10.4 13.0 0.00 0.00 0.00 100
20260905193423 57 220 10.4 13.0 0.00 0.00 0.00 100
20260905193219 56 225 9.6 12.2 0.00 0.00 0.00 100
20260905193014 56 219 8.7 10.4 0.00 0.00 0.00 100
20260905192813 56 218 9.6 12.2 0.00 0.00 0.00 100
20260905192612 56 226 9.6 12.2 0.00 0.00 0.00 100
20260905192510 56 225 8.7 11.3 0.00 0.00 0.00 100
20260905192410 56 229 9.6 11.3 0.00 0.00 0.00 100
20260905192208 57 223 9.6 11.3 0.00 0.00 0.00 100
20260905192005 57 226 8.7 11.3 0.00 0.00 0.00 100
20260905191805 58 217 8.7 12.2 0.00 0.00 0.00 100
20260905191602 59 212 7.8 10.4 0.00 0.00 0.00 100
20260905191500 60 214 7.8 10.4 0.00 0.00 0.00 100
20260905191400 60 217 7.0 8.7 0.00 0.00 0.00 100
20260905191220 60 222 6.1 7.0 0.00 0.00 0.00 100
20260905190956 60 217 5.2 7.0 0.00 0.00 0.00 100
20260905190753 60 216 6.1 7.0 0.00 0.00 0.00 100
20260905190552 60 217 6.1 7.8 0.00 0.00 0.00 100
20260905190451 60 217 7.0 7.8 0.00 0.00 0.00 100
20260905190350 60 217 7.0 8.7 0.00 0.00 0.00 100
20260905190147 60 215 6.1 8.7 0.00 0.00 0.00 100
20260905185945 60 217 6.1 7.0 0.00 0.00 0.00 100
20260905185743 60 217 6.1 7.0 0.00 0.00 0.00 100
20260905185542 60 215 6.1 7.0 0.00 0.00 0.00 100
20260905185441 60 214 5.2 7.0 0.00 0.00 0.00 100
20260905185340 60 214 5.2 8.7 0.00 0.00 0.00 100
20260905185139 60 214 6.1 8.7 0.00 0.00 0.00 100
20260905184937 60 215 6.1 7.8 0.00 0.00 0.00 100
20260905184735 60 215 5.2 7.0 0.00 0.00 0.00 100
20260905184535 60 215 5.2 7.0 0.00 0.00 0.00 100
20260905184434 60 219 5.2 7.0 0.00 0.00 0.00 100
20260905184334 60 218 5.2 6.1 0.00 0.00 0.00 100
20260905184132 60 218 5.2 7.0 0.00 0.00 0.00 100
20260905183930 60 220 6.1 7.8 0.00 0.00 0.00 100
20260905183728 60 215 6.1 7.8 0.00 0.00 0.00 100
20260905183527 60 227 6.1 7.8 0.00 0.00 0.00 100
20260905183425 60 227 6.1 7.8 0.00 0.00 0.00 100
20260905183324 60 222 5.2 7.8 0.00 0.00 0.00 100
20260905183122 60 215 5.2 7.0 0.00 0.00 0.00 100
20260905182921 60 216 6.1 7.8 0.00 0.00 0.00 100
20260905182719 60 215 6.1 7.8 0.00 0.00 0.00 100
20260905182518 60 219 7.0 10.4 0.00 0.00 0.00 100
20260905182416 60 220 6.1 10.4 0.00 0.00 0.00 100
20260905182315 60 225 5.2 7.0 0.00 0.00 0.00 100
20260905182114 60 221 5.2 7.0 0.00 0.00 0.00 100
20260905181913 60 216 6.1 7.8 0.00 0.00 0.00 100
20260905181712 60 219 6.1 8.7 0.00 0.00 0.00 100
20260905181511 60 224 6.1 8.7 0.00 0.00 0.00 100
20260905181410 60 223 6.1 8.7 0.00 0.00 0.00 100
20260905181309 60 222 6.1 8.7 0.00 0.00 0.00 100
20260905181107 60 219 5.2 7.8 0.00 0.00 0.00 100
20260905180905 60 218 5.2 7.8 0.00 0.00 0.00 100
20260905180703 60 225 5.2 7.0 0.00 0.00 0.00 100
20260905180503 60 230 5.2 7.8 0.00 0.00 0.00 100
20260905180402 60 225 5.2 7.8 0.00 0.00 0.00 100
20260905180301 60 225 5.2 7.0 0.00 0.00 0.00 100
20260905180059 60 225 5.2 7.0 0.00 0.00 0.00 100
20260905175857 60 221 5.2 7.0 0.00 0.00 0.00 100
20260905175706 60 219 5.2 7.0 0.00 0.00 0.00 100
20260905175453 60 218 6.1 7.8 0.00 0.00 0.00 100
20260905175352 60 225 6.1 8.7 0.00 0.00 0.00 100
20260905175251 60 225 6.1 8.7 0.00 0.00 0.00 100
20260905175050 60 224 6.1 7.8 0.00 0.00 0.00 100
20260905174847 60 228 6.1 9.6 0.00 0.00 0.00 100
20260905174645 60 230 6.1 9.6 0.00 0.00 0.00 100
20260905174444 60 225 5.2 7.0 0.00 0.00 0.00 100
20260905174343 60 222 5.2 9.6 0.00 0.00 0.00 100
20260905174242 61 222 6.1 9.6 0.00 0.00 0.00 100
20260905174041 61 225 6.1 9.6 0.00 0.00 0.00 100
20260905173839 61 225 6.1 9.6 0.00 0.00 0.00 100
20260905173639 61 225 6.1 7.8 0.00 0.00 0.00 100
20260905173437 61 225 7.0 10.4 0.00 0.00 0.00 100
20260905173336 61 225 7.8 10.4 0.00 0.00 0.00 100
20260905173236 61 224 7.0 10.4 0.00 0.00 0.00 100
20260905173034 61 226 6.1 8.7 0.00 0.00 0.00 100
20260905172833 61 230 6.1 8.7 0.00 0.00 0.00 100
20260905172630 61 231 7.0 7.8 0.00 0.00 0.00 100
20260905172427 61 231 6.1 8.7 0.00 0.00 0.00 100
20260905172327 61 233 6.1 8.7 0.00 0.00 0.00 100
20260905172226 61 237 6.1 7.8 0.00 0.00 0.00 100
20260905172023 61 232 7.0 9.6 0.00 0.00 0.00 100
20260905171822 61 230 6.1 8.7 0.00 0.00 0.00 100
20260905171621 61 233 6.1 9.6 0.00 0.00 0.00 100
20260905171419 61 237 7.0 9.6 0.00 0.00 0.00 100
20260905171318 61 236 6.1 8.7 0.00 0.00 0.00 100
20260905171216 61 236 6.1 8.7 0.00 0.00 0.00 100
20260905171014 61 240 6.1 7.8 0.00 0.00 0.00 100
20260905170812 61 236 7.0 8.7 0.00 0.00 0.00 100
20260905170612 61 235 7.0 10.4 0.00 0.00 0.00 100
20260905170410 61 238 7.0 10.4 0.00 0.00 0.00 100
20260905170309 61 241 7.0 9.6 0.00 0.00 0.00 100
20260905165958 61 230 7.0 10.4 0.00 0.00 0.00 100
20260905165751 62 230 7.0 10.4 0.00 0.00 0.00 100
20260905165554 62 233 6.1 9.6 0.00 0.00 0.00 100
20260905165353 62 238 7.0 10.4 0.00 0.00 0.00 100
20260905165247 62 241 7.0 10.4 0.00 0.00 0.00 100
20260905165151 63 241 7.0 12.2 0.00 0.00 0.00 100
20260905164949 63 237 7.8 14.8 0.00 0.00 0.00 100
20260905164740 63 232 8.7 13.9 0.00 0.00 0.00 100
20260905164542 63 228 8.7 13.9 0.00 0.00 0.00 100
20260905164340 63 237 8.7 13.9 0.00 0.00 0.00 100
20260905164233 63 233 8.7 13.9 0.00 0.00 0.00 100
20260905164137 63 225 8.7 13.9 0.00 0.00 0.00 100
20260905163935 64 221 7.0 12.2 0.00 0.00 0.00 100
20260905163726 64 225 8.7 11.3 0.00 0.00 0.00 100
20260905163530 64 227 9.6 14.8 0.00 0.00 0.00 100
20260905163326 64 221 7.8 11.3 0.00 0.00 0.00 100
20260905163221 64 224 7.0 10.4 0.00 0.00 0.00 100
20260905163124 64 225 7.0 11.3 0.00 0.00 0.00 100
20260905162921 64 227 8.7 13.0 0.00 0.00 0.00 100
20260905162714 64 230 7.8 13.0 0.00 0.00 0.00 100
20260905162513 64 225 8.7 12.2 0.00 0.00 0.00 100
20260905162312 64 221 9.6 14.8 0.00 0.00 0.00 100
20260905162207 64 225 10.4 16.5 0.00 0.00 0.00 100
20260905162109 64 226 10.4 16.5 0.00 0.00 0.00 100
20260905161905 64 224 12.2 17.4 0.00 0.00 0.00 100
20260905161659 64 223 9.6 18.2 0.00 0.00 0.00 100
20260905161500 65 231 10.4 15.6 0.00 0.00 0.00 100
20260905161258 65 230 12.2 15.6 0.00 0.00 0.00 100
20260905161152 65 226 12.2 17.4 0.00 0.00 0.00 100
20260905161055 65 224 10.4 17.4 0.00 0.00 0.00 100
20260905160853 65 231 7.0 9.6 0.00 0.00 0.00 100
20260905160647 65 225 7.0 9.6 0.00 0.00 0.00 100
20260905160450 65 231 8.7 12.2 0.00 0.00 0.00 100
20260905160247 65 227 8.7 12.2 0.00 0.00 0.00 100
20260905160142 65 225 7.8 12.2 0.00 0.00 0.00 100
20260905160045 65 232 7.8 12.2 0.00 0.00 0.00 100
20260905155842 65 221 9.6 13.9 0.00 0.00 0.00 100
20260905155636 65 218 7.8 13.0 0.00 0.00 0.00 100
20260905155438 66 218 7.8 12.2 0.00 0.00 0.00 100
20260905155237 65 221 10.4 13.0 0.00 0.00 0.00 100
20260905155131 65 220 9.6 13.0 0.00 0.00 0.00 100
20260905155034 65 216 8.7 13.0 0.00 0.00 0.00 100
20260905154831 65 215 7.0 12.2 0.00 0.00 0.00 100
20260905154625 65 219 8.7 14.8 0.00 0.00 0.00 100
20260905154427 65 223 8.7 11.3 0.00 0.00 0.00 100
20260905154225 65 224 8.7 12.2 0.00 0.00 0.00 100
20260905154118 65 224 8.7 12.2 0.00 0.00 0.00 100
20260905154022 65 216 8.7 12.2 0.00 0.00 0.00 100
20260905153820 65 218 8.7 12.2 0.00 0.00 0.00 100
20260905153612 65 222 9.6 13.0 0.00 0.00 0.00 100
20260905153415 65 225 10.4 15.6 0.00 0.00 0.00 100
20260905153213 65 221 9.6 15.6 0.00 0.00 0.00 100
20260905153107 66 220 8.7 14.8 0.00 0.00 0.00 100
20260905153009 66 221 7.0 10.4 0.00 0.00 0.00 100
20260905152807 67 219 8.7 13.9 0.00 0.00 0.00 100
20260905152600 67 218 8.7 13.9 0.00 0.00 0.00 100
20260905152405 67 222 9.6 15.6 0.00 0.00 0.00 100
20260905152203 67 218 9.6 13.9 0.00 0.00 0.00 100
20260905152055 68 222 10.4 13.9 0.00 0.00 0.00 100
20260905152001 68 222 10.4 14.8 0.00 0.00 0.00 100
20260905151759 69 226 10.4 14.8 0.00 0.00 0.00 100
20260905151551 69 222 9.6 14.8 0.00 0.00 0.00 100
20260905151356 69 235 9.6 14.8 0.00 0.00 0.00 100
20260905151153 68 226 9.6 13.9 0.00 0.00 0.00 100
20260905151045 67 228 9.6 13.9 0.00 0.00 0.00 100
20260905150950 66 230 9.6 13.0 0.00 0.00 0.00 100
20260905150746 66 220 9.6 15.6 0.00 0.00 0.00 100
20260905150538 67 227 10.4 15.6 0.00 0.00 0.00 100
20260905150340 68 222 9.6 13.9 0.00 0.00 0.00 100
20260905150134 68 222 10.4 13.9 0.00 0.00 0.00 100
20260905150031 68 222 8.7 13.0 0.00 0.00 0.00 100
20260905145931 68 220 8.7 12.2 0.00 0.00 0.00 100
20260905145731 67 218 7.8 11.3 0.00 0.00 0.00 100
20260905145529 67 218 8.7 14.8 0.00 0.00 0.00 100
20260905145328 66 218 9.6 14.8 0.00 0.00 0.00 100
20260905145126 65 222 8.7 12.2 0.00 0.00 0.00 100
20260905145024 65 230 8.7 13.0 0.00 0.00 0.00 100
20260905144924 65 228 8.7 13.0 0.00 0.00 0.00 100
20260905144721 66 222 7.0 8.7 0.00 0.00 0.00 100
20260905144518 65 224 7.8 13.9 0.00 0.00 0.00 100
20260905144318 66 224 8.7 15.6 0.00 0.00 0.00 100
20260905144115 67 229 8.7 13.9 0.00 0.00 0.00 100
20260905144010 67 227 9.6 12.2 0.00 0.00 0.00 100
20260905143912 67 217 11.3 17.4 0.00 0.00 0.00 100
20260905143710 68 217 11.3 18.2 0.00 0.00 0.00 100
20260905143505 68 221 9.6 13.0 0.00 0.00 0.00 100
20260905143503 67 221 9.6 13.0 0.00 0.00 0.00 100
20260905143304 67 222 10.4 15.6 0.00 0.00 0.00 100
20260905143101 68 219 9.6 13.9 0.00 0.00 0.00 100
20260905142958 68 219 9.6 13.0 0.00 0.00 0.00 100
20260905142858 68 213 9.6 13.0 0.00 0.00 0.00 100
20260905142655 68 215 8.7 13.0 0.00 0.00 0.00 100
20260905142453 72 214 9.6 13.9 0.00 0.00 0.00 100
20260905142239 72 215 8.7 13.9 0.00 0.00 0.00 100
20260905142038 72 217 8.7 13.0 0.00 0.00 0.00 100
20260905141836 72 223 10.4 15.6 0.00 0.00 0.00 100
20260905141634 73 217 10.4 15.6 0.00 0.00 0.00 100
20260905141433 74 217 7.8 12.2 0.00 0.00 0.00 100
20260905141232 73 223 7.0 11.3 0.00 0.00 0.00 100
20260905141042 73 227 7.0 10.4 0.00 0.00 0.00 100
20260905140932 74 228 8.7 14.8 0.00 0.00 0.00 100
20260905140831 74 225 8.7 14.8 0.00 0.00 0.00 100
20260905140630 73 220 7.8 12.2 0.00 0.00 0.00 100
20260905140428 72 225 10.4 13.9 0.00 0.00 0.00 100
20260905140226 72 220 11.3 16.5 0.00 0.00 0.00 100
20260905140024 70 225 13.0 20.0 0.00 0.00 0.00 100
20260905135923 69 229 12.2 20.0 0.00 0.00 0.00 100
20260905135821 68 225 12.2 20.0 0.00 0.00 0.00 100
20260905135617 68 217 9.6 18.2 0.00 0.00 0.00 100
20260905135414 68 218 7.8 11.3 0.00 0.00 0.00 100
20260905135212 67 220 10.4 18.2 0.00 0.00 0.00 100
20260905135010 67 224 10.4 15.6 0.00 0.00 0.00 100
20260905134910 67 224 11.3 15.6 0.00 0.00 0.00 100
20260905134808 67 218 12.2 15.6 0.00 0.00 0.00 100
20260905134607 68 220 10.4 14.8 0.00 0.00 0.00 100
20260905134414 68 215 11.3 15.6 0.00 0.00 0.00 100
20260905134404 70 215 11.3 15.6 0.00 0.00 0.00 100
20260905134202 70 219 12.2 17.4 0.00 0.00 0.00 100
20260905134000 70 214 11.3 18.2 0.00 0.00 0.00 100
20260905133859 70 215 12.2 18.2 0.00 0.00 0.00 100
20260905133758 70 215 12.2 18.2 0.00 0.00 0.00 100
20260905133557 69 214 11.3 17.4 0.00 0.00 0.00 100
20260905133356 71 218 12.2 20.0 0.00 0.00 0.00 100
20260905133153 71 228 13.0 20.0 0.00 0.00 0.00 100
20260905132951 71 240 11.3 18.2 0.00 0.00 0.00 100
20260905132848 71 234 9.6 17.4 0.00 0.00 0.00 100
20260905132748 71 223 9.6 14.8 0.00 0.00 0.00 100
20260905132547 71 221 13.0 17.4 0.00 0.00 0.00 100
20260905132343 71 227 13.0 17.4 0.00 0.00 0.00 100
20260905132144 71 223 14.8 19.1 0.00 0.00 0.00 100
20260905131943 71 223 12.2 18.2 0.00 0.00 0.00 100
20260905131840 71 218 11.3 16.5 0.00 0.00 0.00 100
20260905131741 71 218 12.2 18.2 0.00 0.00 0.00 100
20260905131539 71 223 13.0 20.0 0.00 0.00 0.00 100
20260905131336 70 220 12.2 17.4 0.00 0.00 0.00 100
20260905131135 71 216 12.2 17.4 0.00 0.00 0.00 100
20260905130934 71 220 13.0 18.2 0.00 0.00 0.00 100
20260905130835 71 219 12.2 18.2 0.00 0.00 0.00 100
20260905130733 71 217 10.4 16.5 0.00 0.00 0.00 100
20260905130531 71 223 12.2 20.0 0.00 0.00 0.00 100
20260905130331 71 227 13.0 20.0 0.00 0.00 0.00 100
20260905130136 71 219 12.2 20.0 0.00 0.00 0.00 100
20260905125927 70 218 8.7 13.0 0.00 0.00 0.00 100
20260905125826 70 218 9.6 17.4 0.00 0.00 0.00 100
20260905125725 70 223 11.3 17.4 0.00 0.00 0.00 100
20260905125522 71 223 12.2 20.9 0.00 0.00 0.00 100
20260905125319 71 217 10.4 15.6 0.00 0.00 0.00 100
20260905125118 72 217 12.2 18.2 0.00 0.00 0.00 100
20260905124915 72 225 13.9 21.7 0.00 0.00 0.00 100
20260905124814 73 225 13.0 21.7 0.00 0.00 0.00 100
20260905124713 74 234 10.4 20.0 0.00 0.00 0.00 100
20260905124510 73 218 9.6 16.5 0.00 0.00 0.00 100
20260905124308 73 212 7.8 13.9 0.00 0.00 0.00 100
20260905124107 73 214 10.4 17.4 0.00 0.00 0.00 100
20260905123904 72 218 13.0 20.0 0.00 0.00 0.00 100
20260905123803 72 223 13.9 20.0 0.00 0.00 0.00 100
20260905123702 72 223 13.9 20.0 0.00 0.00 0.00 100
20260905123459 71 218 12.2 17.4 0.00 0.00 0.00 100
20260905123257 71 218 8.7 17.4 0.00 0.00 0.00 100
20260905123054 70 216 8.7 11.3 0.00 0.00 0.00 100
20260905122852 70 224 11.3 16.5 0.00 0.00 0.00 100
20260905122752 70 224 12.2 16.5 0.00 0.00 0.00 100
20260905122650 70 222 12.2 20.0 0.00 0.00 0.00 100
20260905122242 71 227 12.2 17.4 0.00 0.00 0.00 100
20260905122039 70 222 12.2 17.4 0.00 0.00 0.00 100
20260905121836 70 224 13.0 17.4 0.00 0.00 0.00 100
20260905121735 70 225 13.9 20.9 0.00 0.00 0.00 100
20260905121633 70 228 13.9 20.9 0.00 0.00 0.00 100
20260905121430 69 236 13.9 20.9 0.00 0.00 0.00 100
20260905121225 70 220 16.5 23.5 0.00 0.00 0.00 100
20260905121022 69 220 13.9 19.1 0.00 0.00 0.00 100
20260905120821 69 226 13.0 16.5 0.00 0.00 0.00 100
20260905120718 71 227 13.9 19.1 0.00 0.00 0.00 100
20260905120618 71 219 13.0 19.1 0.00 0.00 0.00 100
20260905120414 71 226 9.6 15.6 0.00 0.00 0.00 100
20260905120212 69 218 7.8 12.2 0.00 0.00 0.00 100
20260905120010 67 224 8.7 15.6 0.00 0.00 0.00 100
20260905115827 67 234 10.4 15.6 0.00 0.00 0.00 100
20260905115704 67 246 12.2 14.8 0.00 0.00 0.00 100
20260905115107 71 223 13.9 19.1 0.00 0.00 0.00 100
20260905114601 69 237 12.2 20.0 0.00 0.00 0.00 100
20260905114310 69 242 13.0 17.4 0.00 0.00 0.00 100
20260905114052 68 224 12.2 17.4 0.00 0.00 0.00 100
20260905113846 66 224 7.8 12.2 0.00 0.00 0.00 100
20260905113644 66 231 7.8 11.3 0.00 0.00 0.00 100
20260905113542 66 237 7.0 11.3 0.00 0.00 0.00 100
20260905113441 66 236 5.2 11.3 0.00 0.00 0.00 100
20260905113240 68 238 7.0 10.4 0.00 0.00 0.00 100
20260905113038 71 240 7.0 17.4 0.00 0.00 0.00 100
20260905112835 69 230 6.1 8.7 0.00 0.00 0.00 100
20260905112633 68 230 5.2 7.8 0.00 0.00 0.00 100
20260905112532 68 233 7.0 13.0 0.00 0.00 0.00 100
20260905112433 68 239 7.8 13.0 0.00 0.00 0.00 100
20260905112228 66 228 8.7 12.2 0.00 0.00 0.00 100
20260905112025 66 227 8.7 13.0 0.00 0.00 0.00 100
20260905111809 66 225 7.8 13.0 0.00 0.00 0.00 100
20260905111606 66 232 7.8 13.9 0.00 0.00 0.00 100
20260905111505 65 235 9.6 13.9 0.00 0.00 0.00 100
20260905111404 65 236 8.7 13.9 0.00 0.00 0.00 100
20260905111201 66 238 7.0 13.9 0.00 0.00 0.00 100
20260905110958 67 223 7.0 10.4 0.00 0.00 0.00 100
20260905110756 68 221 7.8 11.3 0.00 0.00 0.00 100
20260905110554 68 218 9.6 17.4 0.00 0.00 0.00 100
20260905110450 68 218 10.4 17.4 0.00 0.00 0.00 100
20260905110350 67 217 10.4 17.4 0.00 0.00 0.00 100
20260905110144 66 221 8.7 14.8 0.00 0.00 0.00 100
20260905105940 66 226 8.7 12.2 0.00 0.00 0.00 100
20260905105737 66 229 7.8 13.9 0.00 0.00 0.00 100
20260905105534 67 228 9.6 13.9 0.00 0.00 0.00 100
20260905105432 67 225 10.4 13.9 0.00 0.00 0.00 100
20260905105330 67 220 11.3 13.9 0.00 0.00 0.00 100
20260905105127 68 217 12.2 20.9 0.00 0.00 0.00 100
20260905104922 68 224 11.3 20.9 0.00 0.00 0.00 100
20260905104718 67 221 7.8 13.0 0.00 0.00 0.00 100
20260905104515 67 219 8.7 13.0 0.00 0.00 0.00 100
20260905104414 67 218 8.7 13.0 0.00 0.00 0.00 100
20260905104312 67 218 7.8 12.2 0.00 0.00 0.00 100
20260905104109 66 218 6.1 9.6 0.00 0.00 0.00 100
20260905103907 65 235 5.2 7.8 0.00 0.00 0.00 100
20260905103701 64 233 5.2 7.0 0.00 0.00 0.00 100
20260905103500 63 220 3.5 5.2 0.00 0.00 0.00 100
20260905103358 63 213 3.5 5.2 0.00 0.00 0.00 100
20260905103257 63 217 3.5 5.2 0.00 0.00 0.00 100
20260905103056 63 231 4.3 6.1 0.00 0.00 0.00 100
20260905102855 62 233 4.3 6.1 0.00 0.00 0.00 100
20260905102652 62 224 2.6 5.2 0.00 0.00 0.00 100
20260905102452 62 225 5.2 7.0 0.00 0.00 0.00 100
20260905102351 62 224 5.2 7.0 0.00 0.00 0.00 100
20260905102250 62 228 4.3 6.1 0.00 0.00 0.00 100
20260905102058 62 228 4.3 7.0 0.00 0.00 0.00 100
20260905101847 62 225 5.2 9.6 0.00 0.00 0.00 100
20260905101645 61 219 6.1 9.6 0.00 0.00 0.00 100
20260905101442 61 221 5.2 7.0 0.00 0.00 0.00 100
20260905101341 61 221 5.2 7.0 0.00 0.00 0.00 100
20260905101239 61 222 6.1 7.8 0.00 0.00 0.00 100
20260905101039 60 224 7.0 9.6 0.00 0.00 0.00 100
20260905100837 60 220 7.0 9.6 0.00 0.00 0.00 100
20260905100634 60 229 6.1 9.6 0.00 0.00 0.00 100
20260905100434 60 228 6.1 8.7 0.00 0.00 0.00 100
20260905100330 60 223 5.2 8.7 0.00 0.00 0.00 100
20260905100232 60 218 7.0 10.4 0.00 0.00 0.00 100
20260905100030 59 215 7.0 10.4 0.00 0.00 0.00 100
20260905095825 59 222 5.2 7.8 0.00 0.00 0.00 100
20260905095628 59 232 5.2 9.6 0.00 0.00 0.00 100
20260905095426 59 233 5.2 9.6 0.00 0.00 0.00 100
20260905095323 59 232 4.3 8.7 0.00 0.00 0.00 100
20260905095226 59 235 5.2 8.7 0.00 0.00 0.00 100
20260905095026 59 231 5.2 8.7 0.00 0.00 0.00 100
20260905094819 59 229 6.1 8.7 0.00 0.00 0.00 100
20260905094621 59 225 5.2 7.0 0.00 0.00 0.00 100
20260905094420 59 233 6.1 9.6 0.00 0.00 0.00 100
20260905094316 59 232 6.1 9.6 0.00 0.00 0.00 100
20260905094217 59 225 6.1 8.7 0.00 0.00 0.00 100
20260905094015 59 233 6.1 8.7 0.00 0.00 0.00 100
20260905093812 59 223 4.3 7.8 0.00 0.00 0.00 100
20260905093611 59 224 4.3 6.1 0.00 0.00 0.00 100
20260905093409 59 221 5.2 7.8 0.00 0.00 0.00 100
20260905093304 59 220 5.2 8.7 0.00 0.00 0.00 100
20260905093007 58 219 4.3 7.0 0.00 0.00 0.00 100
20260905092801 58 226 5.2 7.8 0.00 0.00 0.00 100
20260905092605 58 222 7.0 8.7 0.00 0.00 0.00 100
20260905092404 59 217 5.2 7.8 0.00 0.00 0.00 100
20260905092259 59 216 5.2 7.8 0.00 0.00 0.00 100
20260905092203 59 216 4.3 7.0 0.00 0.00 0.00 100
20260905091959 60 216 3.5 5.2 0.00 0.00 0.00 100
20260905091753 60 219 4.3 5.2 0.00 0.00 0.00 100
20260905091557 60 220 2.6 5.2 0.00 0.00 0.00 100
20260905091355 59 217 2.6 4.3 0.00 0.00 0.00 100
20260905091251 59 215 3.5 5.2 0.00 0.00 0.00 100
20260905091155 59 215 3.5 5.2 0.00 0.00 0.00 100
20260905090955 59 218 3.5 7.0 0.00 0.00 0.00 100
20260905090751 59 216 5.2 7.0 0.00 0.00 0.00 100
20260905090554 58 220 5.2 7.8 0.00 0.00 0.00 100
20260905090354 58 221 5.2 7.8 0.00 0.00 0.00 100
20260905090247 58 224 5.2 7.8 0.00 0.00 0.00 100
20260905090153 58 220 4.3 7.8 0.00 0.00 0.00 100
20260905085951 58 211 4.3 7.0 0.00 0.00 0.00 100
20260905085743 57 208 6.1 9.6 0.00 0.00 0.00 100
20260905085547 57 208 7.0 9.6 0.00 0.00 0.00 100
20260905085346 57 208 6.1 9.6 0.00 0.00 0.00 100
20260905085240 57 208 7.0 9.6 0.00 0.00 0.00 100
20260905085143 57 209 7.0 9.6 0.00 0.00 0.00 100
20260905084939 57 213 8.7 12.2 0.00 0.00 0.00 100
20260905084736 57 217 7.0 13.9 0.00 0.00 0.00 100
20260905084545 57 226 6.1 9.6 0.00 0.00 0.00 100
20260905084333 57 229 7.0 9.6 0.00 0.00 0.00 100
20260905084231 57 232 7.0 10.4 0.00 0.00 0.00 100
20260905083918 57 227 8.7 13.9 0.00 0.00 0.00 100
20260905083716 57 232 8.7 13.0 0.00 0.00 0.00 100
20260905083513 57 234 9.6 15.6 0.00 0.00 0.00 100
20260905083310 57 229 8.7 13.0 0.00 0.00 0.00 100
20260905083207 57 229 8.7 13.0 0.00 0.00 0.00 100
20260905083108 57 232 8.7 13.0 0.00 0.00 0.00 100
20260905082906 58 237 8.7 12.2 0.00 0.00 0.00 100
20260905082702 58 239 8.7 13.0 0.00 0.00 0.00 100
20260905082501 58 242 8.7 13.0 0.00 0.00 0.00 100
20260905082300 58 249 8.7 15.6 0.00 0.00 0.00 100
20260905082157 59 233 9.6 15.6 0.00 0.00 0.00 100
20260905082058 59 233 9.6 15.6 0.00 0.00 0.00 100
20260905081856 59 229 9.6 13.9 0.00 0.00 0.00 100
20260905081653 59 228 11.3 15.6 0.00 0.00 0.00 100
20260905081453 59 238 8.7 15.6 0.00 0.00 0.00 100
20260905081249 59 238 8.7 14.8 0.00 0.00 0.00 100
20260905081146 58 235 9.6 14.8 0.00 0.00 0.00 100
20260905081046 58 228 10.4 14.8 0.00 0.00 0.00 100
20260905080843 58 229 9.6 13.0 0.00 0.00 0.00 100
20260905080640 58 239 11.3 14.8 0.00 0.00 0.00 100
20260905080439 58 228 10.4 15.6 0.00 0.00 0.00 100
20260905080237 58 223 10.4 15.6 0.00 0.00 0.00 100
20260905080132 58 222 9.6 13.0 0.00 0.00 0.00 100
20260905080035 58 225 8.7 13.0 0.00 0.00 0.00 100
20260905075833 57 229 9.6 13.9 0.00 0.00 0.00 100
20260905075626 57 227 9.6 14.8 0.00 0.00 0.00 100
20260905075427 57 223 9.6 14.8 0.00 0.00 0.00 100
20260905075226 57 232 10.4 13.9 0.00 0.00 0.00 100
20260905075122 58 237 10.4 16.5 0.00 0.00 0.00 100
20260905075023 58 245 10.4 16.5 0.00 0.00 0.00 100
20260905074820 58 238 10.4 18.2 0.00 0.00 0.00 100
20260905074614 58 230 12.2 18.2 0.00 0.00 0.00 100
20260905074412 59 227 12.2 18.2 0.00 0.00 0.00 100
20260905074208 60 223 13.0 21.7 0.00 0.00 0.00 100
20260905074106 60 229 13.9 21.7 0.00 0.00 0.00 100
20260905074002 60 228 14.8 21.7 0.00 0.00 0.00 100
20260905073759 61 227 16.5 22.6 0.00 0.00 0.00 100
20260905073554 61 234 15.6 26.1 0.00 0.00 0.00 100
20260905073351 61 232 12.2 23.5 0.00 0.00 0.00 100
20260905073146 61 234 13.0 16.5 0.00 0.00 0.00 100
20260905073040 61 240 13.9 21.7 0.00 0.00 0.00 100
20260905072943 61 236 14.8 21.7 0.00 0.00 0.00 100
20260905072737 61 222 13.9 20.0 0.00 0.00 0.00 100
20260905072527 61 230 13.9 19.1 0.00 0.00 0.00 100
20260905072328 61 228 13.9 24.3 0.00 0.00 0.00 100
20260905072123 61 223 12.2 17.4 0.00 0.00 0.00 100
20260905072016 61 222 13.0 20.0 0.00 0.00 0.00 100
20260905071921 61 226 13.9 20.0 0.00 0.00 0.00 100
20260905071718 61 223 16.5 22.6 0.00 0.00 0.00 100
20260905071507 61 234 14.8 22.6 0.00 0.00 0.00 100
20260905071306 61 229 14.8 20.9 0.00 0.00 0.00 100
20260905071102 61 224 13.0 17.4 0.00 0.00 0.00 100
20260905070956 62 224 13.0 17.4 0.00 0.00 0.00 100
20260905070855 62 222 13.0 17.4 0.00 0.00 0.00 100
20260905070651 62 226 13.0 20.9 0.00 0.00 0.00 100
20260905070448 62 229 15.6 23.5 0.00 0.00 0.00 100
20260905070237 62 233 12.2 17.4 0.00 0.00 0.00 100
20260905070034 62 230 13.9 21.7 0.00 0.00 0.00 100
20260905065933 62 228 13.9 21.7 0.00 0.00 0.00 100
20260905065829 62 220 14.8 21.7 0.00 0.00 0.00 100
20260905065626 61 225 15.6 29.5 0.00 0.00 0.00 100
20260905065420 61 230 12.2 18.2 0.00 0.00 0.00 100
20260905065213 61 222 10.4 13.9 0.00 0.00 0.00 100
20260905065031 62 222 11.3 15.6 0.00 0.00 0.00 100
20260905064908 62 219 10.4 15.6 0.00 0.00 0.00 100
20260905064601 62 227 13.0 19.1 0.00 0.00 0.00 100
20260905064358 62 231 13.0 20.9 0.00 0.00 0.00 100
20260905064153 62 231 12.2 17.4 0.00 0.00 0.00 100
20260905063947 62 224 11.3 17.4 0.00 0.00 0.00 100
20260905063846 62 225 12.2 19.1 0.00 0.00 0.00 100
20260905063744 62 224 13.0 24.3 0.00 0.00 0.00 100
20260905063540 62 223 13.9 24.3 0.00 0.00 0.00 100
20260905063337 61 222 12.2 17.4 0.00 0.00 0.00 100
20260905063130 61 231 11.3 17.4 0.00 0.00 0.00 100
20260905062934 62 233 11.3 16.5 0.00 0.00 0.00 100
20260905062822 62 232 11.3 16.5 0.00 0.00 0.00 100
20260905062720 62 227 11.3 16.5 0.00 0.00 0.00 100
20260905062517 62 231 11.3 20.9 0.00 0.00 0.00 100
20260905062314 62 223 10.4 14.8 0.00 0.00 0.00 100
20260905062112 62 225 9.6 13.0 0.00 0.00 0.00 100
20260905061919 62 229 12.2 17.4 0.00 0.00 0.00 100
20260905061807 62 229 13.0 19.1 0.00 0.00 0.00 100
20260905061706 62 231 13.9 20.9 0.00 0.00 0.00 100
20260905061505 62 236 12.2 20.9 0.00 0.00 0.00 100
20260905061302 62 232 13.9 18.2 0.00 0.00 0.00 100
20260905061058 62 228 11.3 18.2 0.00 0.00 0.00 100
20260905060856 62 228 10.4 15.6 0.00 0.00 0.00 100
20260905060754 62 228 10.4 15.6 0.00 0.00 0.00 100
20260905060652 62 230 10.4 15.6 0.00 0.00 0.00 100
20260905060449 62 226 12.2 16.5 0.00 0.00 0.00 100
20260905060246 62 227 11.3 14.8 0.00 0.00 0.00 100
20260905060031 62 230 12.2 20.0 0.00 0.00 0.00 100
20260905055827 62 230 13.0 16.5 0.00 0.00 0.00 100
20260905055717 62 226 12.2 16.5 0.00 0.00 0.00 100
20260905055620 62 225 13.0 19.1 0.00 0.00 0.00 100
20260905055415 62 221 13.9 19.1 0.00 0.00 0.00 100
20260905055208 62 221 13.9 24.3 0.00 0.00 0.00 100
20260905055010 62 223 13.9 24.3 0.00 0.00 0.00 100
20260905054806 62 228 13.0 20.0 0.00 0.00 0.00 100
20260905054657 62 227 12.2 18.2 0.00 0.00 0.00 100
20260905054601 62 227 13.0 18.2 0.00 0.00 0.00 100
20260905054358 62 232 12.2 18.2 0.00 0.00 0.00 100
20260905054148 62 227 12.2 16.5 0.00 0.00 0.00 100
20260905053950 62 221 12.2 19.1 0.00 0.00 0.00 100
20260905053749 62 226 12.2 18.2 0.00 0.00 0.00 100
20260905053636 62 231 12.2 18.2 0.00 0.00 0.00 100
20260905053543 62 222 12.2 18.2 0.00 0.00 0.00 100
20260905053337 62 225 13.0 18.2 0.00 0.00 0.00 100
20260905053126 62 225 11.3 17.4 0.00 0.00 0.00 100
20260905052927 62 222 11.3 17.4 0.00 0.00 0.00 100
20260905052726 62 226 11.3 17.4 0.00 0.00 0.00 100
20260905052614 62 224 9.6 14.8 0.00 0.00 0.00 100
20260905052512 62 228 10.4 16.5 0.00 0.00 0.00 100
20260905052310 61 241 9.6 15.6 0.00 0.00 0.00 100
20260905052106 61 240 10.4 13.9 0.00 0.00 0.00 100
20260905051902 61 244 10.4 15.6 0.00 0.00 0.00 100
20260905051701 61 237 10.4 15.6 0.00 0.00 0.00 100
20260905051557 61 227 9.6 14.8 0.00 0.00 0.00 100
20260905051457 61 229 8.7 14.8 0.00 0.00 0.00 100
20260905051254 61 229 7.8 14.8 0.00 0.00 0.00 100
20260905051049 61 219 5.2 8.7 0.00 0.00 0.00 100
20260905050848 60 222 7.0 10.4 0.00 0.00 0.00 100
20260905050645 60 222 7.0 10.4 0.00 0.00 0.00 100
20260905050544 60 216 6.1 8.7 0.00 0.00 0.00 100
20260905050443 60 213 5.2 8.7 0.00 0.00 0.00 100
20260905050240 60 215 4.3 7.0 0.00 0.00 0.00 100
20260905050038 60 220 5.2 7.8 0.00 0.00 0.00 100
20260905045835 60 218 4.3 7.8 0.00 0.00 0.00 100
20260905045634 60 215 4.3 7.0 0.00 0.00 0.00 100
20260905045531 61 213 4.3 7.8 0.00 0.00 0.00 100
20260905045432 60 213 4.3 7.8 0.00 0.00 0.00 100
20260905045229 60 207 3.5 6.1 0.00 0.00 0.00 100
20260905045026 60 200 3.5 4.3 0.00 0.00 0.00 100
20260905044828 60 206 4.3 7.0 0.00 0.00 0.00 100
20260905044627 60 208 3.5 5.2 0.00 0.00 0.00 100
20260905044524 60 213 3.5 5.2 0.00 0.00 0.00 100
20260905044426 60 212 3.5 5.2 0.00 0.00 0.00 100
20260905044225 60 210 3.5 5.2 0.00 0.00 0.00 100
20260905044021 60 211 5.2 7.0 0.00 0.00 0.00 100
20260905043823 59 210 4.3 7.0 0.00 0.00 0.00 100
20260905043621 59 213 4.3 6.1 0.00 0.00 0.00 100
20260905043518 59 213 5.2 6.1 0.00 0.00 0.00 100
20260905043419 59 215 5.2 7.8 0.00 0.00 0.00 100
20260905043218 59 213 4.3 7.8 0.00 0.00 0.00 100
20260905043014 59 213 4.3 7.0 0.00 0.00 0.00 100
20260905042816 59 217 3.5 5.2 0.00 0.00 0.00 100
20260905042615 59 219 4.3 7.0 0.00 0.00 0.00 100
20260905042508 59 219 5.2 7.0 0.00 0.00 0.00 100
20260905042414 59 220 5.2 7.0 0.00 0.00 0.00 100
20260905042213 59 212 3.5 5.2 0.00 0.00 0.00 100
20260905042005 59 213 2.6 3.5 0.00 0.00 0.00 100
20260905041811 59 210 2.6 3.5 0.00 0.00 0.00 100
20260905041610 58 204 2.6 3.5 0.00 0.00 0.00 100
20260905041503 58 200 1.7 3.5 0.00 0.00 0.00 100
20260905041410 58 199 2.6 3.5 0.00 0.00 0.00 100
20260905041209 58 197 1.7 3.5 0.00 0.00 0.00 100
20260905041002 58 194 1.7 2.6 0.00 0.00 0.00 100
20260905040809 58 193 1.7 2.6 0.00 0.00 0.00 100
20260905040608 58 194 1.7 2.6 0.00 0.00 0.00 100
20260905040501 58 194 1.7 2.6 0.00 0.00 0.00 100
20260905040408 58 193 1.7 3.5 0.00 0.00 0.00 100
20260905040207 58 192 2.6 3.5 0.00 0.00 0.00 100
20260905040000 59 192 1.7 3.5 0.00 0.00 0.00 100
20260905035757 59 197 2.6 3.5 0.00 0.00 0.00 100
20260905035556 59 192 3.5 4.3 0.00 0.00 0.00 100
20260905035456 59 187 3.5 4.3 0.00 0.00 0.00 100
20260905035355 59 186 3.5 4.3 0.00 0.00 0.00 100
20260905035200 59 192 3.5 4.3 0.00 0.00 0.00 100
20260905034954 59 199 3.5 5.2 0.00 0.00 0.00 100
20260905034753 59 208 3.5 5.2 0.00 0.00 0.00 100
20260905034552 59 218 3.5 4.3 0.00 0.00 0.00 100
20260905034452 59 219 3.5 5.2 0.00 0.00 0.00 100
20260905034352 59 227 4.3 6.1 0.00 0.00 0.00 100
20260905034151 59 222 5.2 7.8 0.00 0.00 0.00 100
20260905033948 59 225 5.2 7.8 0.00 0.00 0.00 100
20260905033747 59 231 7.0 9.6 0.00 0.00 0.00 100
20260905033545 59 234 5.2 9.6 0.00 0.00 0.00 100
20260905033444 59 233 5.2 10.4 0.00 0.00 0.00 100
20260905033344 59 238 6.1 10.4 0.00 0.00 0.00 100
20260905033142 59 238 6.1 10.4 0.00 0.00 0.00 100
20260905032941 59 243 7.0 10.4 0.00 0.00 0.00 100
20260905032734 59 240 6.1 9.6 0.00 0.00 0.00 100
20260905032532 59 231 8.7 15.6 0.00 0.00 0.00 100
20260905032432 59 225 9.6 15.6 0.00 0.00 0.00 100
20260905032117 59 233 7.8 12.2 0.00 0.00 0.00 100
20260905031916 60 235 7.8 12.2 0.00 0.00 0.00 100
20260905031714 60 239 7.8 12.2 0.00 0.00 0.00 100
20260905031522 60 239 8.7 13.0 0.00 0.00 0.00 100
20260905031308 60 229 9.6 15.6 0.00 0.00 0.00 100
20260905031106 60 241 10.4 20.0 0.00 0.00 0.00 100
20260905030905 60 235 13.9 21.7 0.00 0.00 0.00 100
20260905030701 60 236 11.3 15.6 0.00 0.00 0.00 100
20260905030458 60 240 12.2 16.5 0.00 0.00 0.00 100
20260905030356 61 238 11.3 16.5 0.00 0.00 0.00 100
20260905030255 61 234 8.7 15.6 0.00 0.00 0.00 100
20260905030053 62 243 11.3 20.9 0.00 0.00 0.00 100
20260905025851 62 234 11.3 15.6 0.00 0.00 0.00 100
20260905025646 62 228 10.4 17.4 0.00 0.00 0.00 100
20260905025443 62 234 11.3 15.6 0.00 0.00 0.00 100
20260905025340 62 239 11.3 19.1 0.00 0.00 0.00 100
20260905025240 62 234 11.3 19.1 0.00 0.00 0.00 100
20260905025035 62 240 10.4 15.6 0.00 0.00 0.00 100
20260905024830 62 240 7.0 10.4 0.00 0.00 0.00 100
20260905024630 62 232 8.7 14.8 0.00 0.00 0.00 100
20260905024426 63 231 9.6 14.8 0.00 0.00 0.00 100
20260905024322 63 232 9.6 14.8 0.00 0.00 0.00 100
20260905024223 63 229 10.4 14.8 0.00 0.00 0.00 100
20260905024021 63 227 7.8 13.9 0.00 0.00 0.00 100
20260905023817 63 231 8.7 13.9 0.00 0.00 0.00 100
20260905023617 63 235 9.6 16.5 0.00 0.00 0.00 100
20260905023415 63 239 8.7 16.5 0.00 0.00 0.00 100
20260905023212 63 236 10.4 19.1 0.00 0.00 0.00 100
20260905023010 63 250 11.3 19.1 0.00 0.00 0.00 100
20260905022805 64 273 11.3 16.5 0.00 0.00 0.00 100
20260905022603 64 241 8.7 16.5 0.00 0.00 0.00 100
20260905022359 64 241 7.8 10.4 0.00 0.00 0.00 100
20260905022253 64 245 7.8 13.0 0.00 0.00 0.00 100
20260905022158 64 244 7.8 13.0 0.00 0.00 0.00 100
20260905021954 64 233 6.1 11.3 0.00 0.00 0.00 100
20260905021746 64 237 6.1 8.7 0.00 0.00 0.00 100
20260905021550 64 234 5.2 8.7 0.00 0.00 0.00 100
20260905021348 64 234 7.0 9.6 0.00 0.00 0.00 100
20260905021241 64 239 7.8 11.3 0.00 0.00 0.00 100
20260905021148 64 238 7.0 11.3 0.00 0.00 0.00 100
20260905020946 64 237 5.2 8.7 0.00 0.00 0.00 100
20260905020737 64 245 5.2 7.8 0.00 0.00 0.00 100
20260905020342 64 246 7.0 10.4 0.00 0.00 0.00 100
20260905020234 64 241 7.0 10.4 0.00 0.00 0.00 100
20260905020140 64 234 7.8 10.4 0.00 0.00 0.00 100
20260905015938 64 232 7.8 12.2 0.00 0.00 0.00 100
20260905015729 64 245 6.1 9.6 0.00 0.00 0.00 100
20260905015524 64 250 6.1 9.6 0.00 0.00 0.00 100
20260905015322 64 248 7.0 9.6 0.00 0.00 0.00 100
20260905015222 64 253 7.8 13.0 0.00 0.00 0.00 100
20260905015122 64 250 8.7 13.0 0.00 0.00 0.00 100
20260905014919 65 247 9.6 13.9 0.00 0.00 0.00 100
20260905014715 65 241 7.8 13.0 0.00 0.00 0.00 100
20260905014513 65 243 9.6 15.6 0.00 0.00 0.00 100
20260905014311 65 247 9.6 15.6 0.00 0.00 0.00 100
20260905014209 65 249 9.6 13.9 0.00 0.00 0.00 100
20260905014107 65 243 11.3 16.5 0.00 0.00 0.00 100
20260905013904 65 252 7.8 16.5 0.00 0.00 0.00 100
20260905013700 65 251 6.1 11.3 0.00 0.00 0.00 100
20260905013459 66 228 4.3 7.0 0.00 0.00 0.00 100
20260905013257 66 220 6.1 7.8 0.00 0.00 0.00 100
20260905013156 66 222 7.0 9.6 0.00 0.00 0.00 100
20260905013056 66 221 7.0 9.6 0.00 0.00 0.00 100
20260905012856 66 219 7.0 10.4 0.00 0.00 0.00 100
20260905012654 65 227 7.8 13.0 0.00 0.00 0.00 100
20260905012448 65 219 7.0 13.0 0.00 0.00 0.00 100
20260905012247 65 220 5.2 8.7 0.00 0.00 0.00 100
20260905012146 65 222 6.1 8.7 0.00 0.00 0.00 100
20260905012045 65 221 7.8 13.0 0.00 0.00 0.00 100
20260905011842 64 220 9.6 13.9 0.00 0.00 0.00 100
20260905011639 64 224 9.6 15.6 0.00 0.00 0.00 100
20260905011435 64 209 7.8 10.4 0.00 0.00 0.00 100
20260905011232 64 215 7.0 11.3 0.00 0.00 0.00 100
20260905011030 64 215 7.0 10.4 0.00 0.00 0.00 100
20260905010829 64 228 7.8 11.3 0.00 0.00 0.00 100
20260905010627 64 241 11.3 16.5 0.00 0.00 0.00 100
20260905010423 65 219 10.4 15.6 0.00 0.00 0.00 100
20260905010219 65 204 13.0 19.1 0.00 0.00 0.00 100
20260905010118 65 208 14.8 20.0 0.00 0.00 0.00 100
20260905010014 65 212 15.6 20.0 0.00 0.00 0.00 100
20260905005812 65 210 16.5 20.9 0.00 0.00 0.00 100
20260905005607 65 202 16.5 20.9 0.00 0.00 0.00 100
20260905005359 65 205 16.5 22.6 0.00 0.00 0.00 100
20260905005153 65 209 16.5 23.5 0.00 0.00 0.00 100
20260905005050 65 213 17.4 23.5 0.00 0.00 0.00 100
20260905004947 65 214 18.2 20.9 0.00 0.00 0.00 100
20260905004739 65 205 17.4 21.7 0.00 0.00 0.00 100
20260905004535 65 213 18.2 24.3 0.00 0.00 0.00 100
20260905004317 65 215 17.4 26.1 0.00 0.00 0.00 100
20260905004117 65 215 13.9 22.6 0.00 0.00 0.00 100
20260905004009 65 209 14.8 22.6 0.00 0.00 0.00 100
20260905003907 65 205 15.6 22.6 0.00 0.00 0.00 100
20260905003704 65 214 16.5 24.3 0.00 0.00 0.00 100
20260905003459 66 204 15.6 24.3 0.00 0.00 0.00 100
20260905003251 65 196 18.2 24.3 0.00 0.00 0.00 100
20260905003047 66 211 16.5 24.3 0.00 0.00 0.00 100
20260905002944 66 216 15.6 21.7 0.00 0.00 0.00 100
20260905002841 66 208 16.5 23.5 0.00 0.00 0.00 100
20260905002635 66 204 17.4 24.3 0.00 0.00 0.00 100
20260905002429 66 218 18.2 24.3 0.00 0.00 0.00 100
20260905002222 66 224 19.1 26.1 0.00 0.00 0.00 100
20260905002014 66 232 17.4 26.9 0.00 0.00 0.00 100
20260905001911 66 213 16.5 26.9 0.00 0.00 0.00 100
20260905001805 66 208 16.5 22.6 0.00 0.00 0.00 100
20260905001558 66 196 19.1 26.1 0.00 0.00 0.00 100
20260905001351 66 213 17.4 22.6 0.00 0.00 0.00 100
20260905001144 66 208 15.6 20.0 0.00 0.00 0.00 100
20260905000938 66 200 14.8 20.0 0.00 0.00 0.00 100
20260905000838 66 200 13.9 20.0 0.00 0.00 0.00 100
20260905000735 66 200 12.2 19.1 0.00 0.00 0.00 100
20260905000532 66 203 13.0 19.1 0.00 0.00 0.00 100
20260905000327 66 207 15.6 28.7 0.00 0.00 0.00 100
20260905000123 66 212 14.8 28.7 0.00 0.00 0.00 100
20260904235919 66 207 13.9 19.1 0.00 0.00 0.00 100
20260904235816 66 218 13.9 19.1 0.00 0.00 0.00 100
20260904235715 66 207 13.9 18.2 0.00 0.00 0.00 100
20260904235509 66 203 13.9 20.0 0.00 0.00 0.00 100
20260904235306 66 212 14.8 22.6 0.00 0.00 0.00 100
20260904235057 66 212 14.8 21.7 0.00 0.00 0.00 100